Theta_e
316 316 316 316 316 316 316 316 315 315 316 316 316 316 316 317 318 319 320 321 321 320 318 317 316 315 315 314 315 315 316 317 317 317 318 318 319 320 321 322 322 322 323 323 323 324 324 324 325 325 325 325 325 325 327 328 328 327 328 328 327 325 322 320 322 323 324 325 325 325 325 323 322 318
316 316 316 315 315 315 315 315 315 315 315 316 316 316 316 316 316 316 317 319 319 318 317 316 315 314 314 314 314 314 315 316 316 317 317 317 318 319 319 321 321 321 322 322 323 323 323 323 323 323 324 325 325 325 325 326 327 327 328 328 328 328 324 320 320 322 323 323 324 325 325 324 322 318
316 315 315 315 314 315 315 315 315 315 315 315 315 315 315 315 315 315 316 317 317 316 315 315 314 314 313 313 314 314 314 315 315 315 316 316 316 317 317 318 318 319 320 320 321 321 322 322 322 322 322 323 324 325 325 325 325 327 328 328 328 328 327 323 319 320 322 322 324 325 325 324 322 319
315 315 315 314 314 314 314 314 314 314 314 315 314 314 314 314 314 314 314 315 315 315 314 314 314 313 313 313 313 313 314 314 314 314 315 315 315 315 315 315 316 317 317 317 318 319 319 320 320 321 321 321 321 323 325 325 325 325 327 328 328 328 328 326 322 319 318 320 322 324 325 325 323 320
314 314 314 313 313 313 312 312 312 312 313 313 314 313 313 313 313 313 313 313 314 314 314 313 313 312 312 312 313 313 313 313 313 314 314 314 314 314 314 314 315 315 315 316 316 317 317 318 318 319 319 319 319 320 321 324 325 325 325 326 327 327 327 328 326 322 317 318 321 323 324 325 323 320
313 313 313 312 312 311 311 311 311 310 310 310 311 312 312 312 312 312 312 312 313 313 313 313 312 312 312 312 312 312 312 313 313 313 313 313 313 313 313 313 313 314 314 314 314 314 315 316 316 317 317 317 318 318 318 320 322 325 325 324 325 326 327 326 327 325 320 317 319 322 323 324 324 321
312 312 312 311 311 310 310 310 309 308 306 305 307 308 310 311 312 311 311 312 312 312 313 312 312 312 312 312 312 311 312 312 312 312 312 312 312 312 312 311 311 312 312 312 312 312 312 313 314 315 315 316 316 317 317 317 318 321 324 325 324 325 326 326 326 327 324 319 318 320 322 323 325 322
311 312 311 310 310 309 308 307 305 304 302 301 302 304 307 309 310 310 311 311 311 311 312 312 311 311 311 311 311 311 311 312 312 312 312 312 311 312 311 310 310 310 310 311 310 310 311 311 311 312 313 314 315 315 316 316 316 317 320 324 324 323 324 326 326 326 326 322 318 318 320 322 324 323
312 312 311 309 308 306 304 303 302 300 299 300 300 302 304 307 310 310 310 310 310 311 311 311 311 310 310 310 311 311 310 311 311 311 311 311 310 311 311 309 309 309 310 310 309 310 310 310 311 312 312 312 313 313 314 315 315 315 317 320 324 324 324 324 326 326 326 325 321 318 320 322 324 324
313 312 310 307 304 302 301 299 299 299 299 300 300 300 302 306 309 310 310 310 310 311 311 310 310 310 310 310 310 310 310 310 311 310 311 310 310 310 310 309 309 309 309 308 308 308 309 309 310 311 312 312 312 313 314 314 315 315 315 317 320 324 325 324 324 325 325 325 323 320 320 321 323 323
312 311 310 305 300 300 299 298 298 299 300 300 300 300 300 303 308 310 310 310 310 310 310 310 309 310 310 310 310 310 309 310 310 309 309 310 310 310 310 308 308 308 308 307 307 308 308 308 308 309 311 312 313 314 314 315 315 316 316 316 317 321 324 324 324 324 325 326 325 322 320 320 321 322
311 310 309 304 298 298 298 298 298 298 299 300 299 300 300 301 306 308 309 309 309 309 309 309 309 309 309 309 309 309 309 309 309 309 309 309 309 309 309 308 307 307 307 307 307 307 307 306 306 307 308 309 311 313 314 315 316 316 317 317 317 318 321 324 325 324 324 325 325 324 322 319 319 321
311 310 308 302 298 299 298 298 298 297 298 299 298 299 299 299 302 306 308 307 308 309 309 309 309 309 309 309 309 309 308 308 309 309 308 309 309 308 308 308 307 306 306 307 306 306 306 305 305 306 306 307 309 311 312 314 315 317 317 318 318 318 319 322 324 325 324 324 325 325 323 320 318 319
311 310 306 300 297 299 298 297 298 298 298 298 298 297 298 297 299 305 307 307 307 308 309 308 308 308 308 308 308 308 307 307 308 308 308 308 308 308 308 308 307 306 306 306 307 306 305 305 305 305 305 305 307 308 309 311 314 316 318 318 319 319 319 320 323 324 324 324 324 324 323 320 319 318
310 310 308 305 304 302 300 298 298 298 298 298 297 297 297 297 297 301 305 306 306 307 308 307 307 307 307 307 307 307 307 307 307 308 308 308 308 307 307 307 307 306 305 306 307 306 305 304 304 304 304 304 305 306 307 310 313 316 318 318 318 319 319 320 322 324 324 324 324 325 323 321 319 319
310 310 309 308 305 303 301 301 299 298 298 297 297 297 297 297 297 299 301 302 304 306 307 307 306 306 306 306 307 307 306 306 307 308 308 308 307 307 307 307 307 306 305 305 306 306 305 304 304 304 304 304 305 305 307 309 312 314 317 318 318 317 318 318 320 322 323 325 325 324 324 321 319 320
310 309 307 305 302 300 301 302 300 298 298 297 297 297 296 297 297 298 300 300 301 304 305 306 306 305 305 305 306 306 306 306 307 308 307 307 307 307 307 307 307 306 305 305 306 306 305 304 304 304 303 303 304 305 306 308 310 313 316 317 317 317 317 317 318 319 321 324 324 324 324 321 319 321
310 309 308 306 304 303 302 301 300 299 298 297 297 297 296 297 297 297 298 299 299 302 304 304 304 304 304 305 305 305 305 305 306 307 308 307 307 308 308 308 307 306 305 305 305 306 306 304 304 304 304 303 304 304 305 306 309 311 314 315 315 316 316 316 317 318 319 322 323 323 323 321 320 321
309 308 308 307 305 303 300 299 300 301 302 300 299 297 296 297 297 296 297 298 299 301 303 303 302 302 303 304 304 304 304 304 305 307 307 307 307 308 308 308 307 307 305 305 305 306 305 304 304 304 304 304 304 304 304 305 306 308 310 312 313 314 315 315 316 317 318 320 321 321 321 320 321 321
307 307 307 306 304 301 298 297 297 300 303 303 302 299 298 298 299 297 296 297 297 299 300 302 302 301 301 302 303 304 304 303 304 306 307 306 307 308 308 308 308 307 305 304 304 305 305 304 304 304 304 304 304 304 304 304 305 306 306 308 310 312 314 315 315 315 316 317 318 319 319 319 320 321
306 306 306 306 304 301 298 298 297 297 301 304 303 302 301 301 300 299 297 297 297 297 298 299 301 302 302 301 302 303 303 302 303 305 306 306 306 307 307 307 307 307 306 304 304 305 305 304 304 304 304 304 303 303 304 304 304 305 305 305 307 309 311 314 315 315 314 314 316 317 318 316 314 315
303 301 303 305 305 302 298 298 297 297 301 303 302 302 302 302 300 298 298 299 298 298 299 300 301 302 302 302 302 302 302 302 302 304 305 305 306 306 306 306 306 307 305 304 304 305 304 304 304 304 304 304 303 302 303 304 304 304 304 304 305 306 308 311 313 314 313 313 314 316 316 315 313 314
301 299 299 301 302 300 298 298 298 297 300 301 300 299 300 300 298 296 297 298 298 299 301 303 303 303 303 303 303 303 302 303 303 304 305 304 305 305 305 305 305 305 304 303 303 304 304 304 303 303 303 304 302 301 302 303 303 303 303 304 304 304 305 307 309 310 311 311 312 312 312 313 313 314
303 301 299 298 299 299 298 299 299 297 298 298 297 296 297 297 296 296 296 296 296 298 301 303 304 304 304 304 303 303 303 303 304 304 304 304 303 303 303 303 304 304 303 302 302 303 304 303 303 303 302 302 302 301 301 302 302 302 303 303 303 304 304 305 305 306 307 308 309 310 310 310 311 311
304 304 302 299 298 299 299 299 299 298 297 296 295 295 295 295 295 296 297 298 299 300 302 304 304 304 304 304 303 303 303 303 303 303 303 302 302 301 302 302 302 302 302 302 302 303 303 302 302 302 302 302 301 301 301 300 300 301 301 301 302 303 303 304 304 304 304 305 305 306 307 308 309 309
305 305 303 299 298 299 299 299 299 298 297 297 295 294 295 296 295 296 298 300 302 303 304 304 303 304 304 303 303 303 302 302 302 302 301 301 301 300 301 300 301 301 301 301 301 301 302 301 301 301 302 301 301 300 300 300 300 300 300 301 301 302 302 302 302 302 303 303 304 304 305 305 306 307
305 302 299 298 299 299 299 299 299 298 298 297 295 294 294 295 295 298 299 300 302 302 302 302 302 302 302 302 302 302 302 302 302 301 301 301 300 300 299 298 298 299 300 300 300 301 301 301 301 301 301 301 301 300 300 300 300 299 300 300 301 301 301 301 301 301 302 302 303 303 304 305 305 306
303 300 297 297 298 298 298 299 298 298 298 297 296 295 295 296 298 300 301 301 301 302 302 302 301 300 299 299 300 301 301 301 301 301 300 299 299 299 297 296 296 296 297 298 299 300 300 301 300 300 300 300 300 300 300 300 299 299 299 300 300 300 300 300 301 301 301 301 302 302 303 303 304 305
299 297 296 296 297 297 298 298 298 298 298 298 296 294 296 298 299 300 301 301 301 301 301 301 301 301 300 298 298 298 300 300 301 301 301 300 299 300 299 297 296 295 295 295 296 298 299 300 300 300 300 300 300 300 300 300 299 299 299 299 299 299 299 300 300 300 300 301 301 301 301 301 302 303
295 295 295 295 296 296 297 298 299 299 298 297 297 296 298 299 299 299 301 301 302 302 301 301 301 301 301 300 299 299 300 300 299 300 301 300 300 301 301 300 298 296 295 295 295 295 296 297 298 299 300 300 300 300 300 300 299 299 298 299 299 298 298 299 299 299 300 300 300 300 300 300 300 301
294 294 294 294 295 295 295 296 297 297 298 299 300 301 300 298 296 296 298 300 301 302 302 302 302 301 301 301 300 300 300 299 299 299 300 300 300 300 301 301 300 299 297 295 295 295 294 295 295 296 298 299 300 300 299 299 299 299 298 298 299 298 298 298 298 299 299 299 299 299 299 299 300 300
293 293 294 294 294 295 296 298 299 299 301 302 303 302 301 299 297 297 298 300 301 302 302 302 302 302 302 301 301 300 300 299 299 299 300 300 300 300 300 300 300 300 299 297 296 295 295 295 294 294 294 296 298 299 300 299 299 299 299 298 298 298 298 298 298 298 298 298 298 298 298 299 299 299
294 295 296 297 297 298 300 301 302 302 302 302 302 301 301 302 301 300 301 301 301 301 302 302 301 302 302 302 301 301 301 300 299 299 299 300 300 300 300 300 299 299 299 298 298 297 297 297 297 296 296 295 295 297 299 299 299 298 299 299 298 298 298 298 298 298 298 298 298 298 298 298 298 299
298 299 299 299 299 300 301 301 302 302 302 303 302 300 300 301 301 300 301 301 299 299 300 301 301 301 301 301 301 301 301 301 301 300 300 300 300 300 300 300 300 299 299 299 298 298 298 299 299 300 299 298 296 295 295 298 299 298 298 298 298 298 298 298 298 298 298 298 298 298 298 298 298 298
298 298 298 298 299 300 300 300 300 300 300 301 301 301 301 301 299 299 301 300 299 299 300 300 300 300 300 301 301 300 300 301 301 301 301 301 300 300 300 299 299 300 299 299 299 299 299 299 300 300 300 300 299 296 294 295 297 298 298 297 297 298 297 297 297 298 298 298 298 298 298 298 297 297
298 298 298 298 298 299 299 298 298 299 299 300 299 300 300 299 299 300 300 297 298 300 300 299 300 300 300 300 300 300 300 300 300 301 301 301 301 301 300 300 300 300 300 299 299 299 299 299 299 300 300 299 299 299 296 294 295 296 298 297 297 297 297 297 297 297 297 297 297 297 297 297 297 296
299 299 300 299 298 299 298 298 298 299 299 299 299 299 299 299 299 298 296 295 297 299 298 298 299 300 299 299 300 300 300 300 300 300 301 301 301 301 300 300 301 301 301 301 300 300 300 300 299 300 300 300 299 299 298 297 295 294 295 297 297 296 297 297 297 297 297 297 297 297 297 297 297 296
300 299 300 300 299 299 299 298 298 298 298 298 298 298 298 298 298 297 296 297 298 298 297 298 299 298 298 299 299 299 299 299 299 300 300 300 300 300 300 300 300 300 300 301 301 301 301 300 300 300 300 300 299 298 298 298 297 295 293 294 295 296 297 297 297 297 297 297 296 297 297 296 295 295
301 300 300 300 299 299 298 297 297 298 298 298 298 298 298 298 297 297 297 297 296 296 297 298 297 296 296 298 297 298 298 299 298 298 299 298 298 298 299 298 298 299 300 299 300 301 301 301 301 300 299 300 299 298 297 297 298 297 295 294 294 294 296 297 297 297 298 297 296 296 296 294 293 292
301 300 300 300 300 299 299 298 298 298 298 298 297 297 297 297 298 298 297 297 296 295 296 296 295 294 295 296 296 296 297 298 298 298 298 297 297 297 296 296 296 298 299 299 299 300 301 302 300 297 297 298 297 297 297 298 299 299 298 297 295 294 295 296 296 297 298 298 297 297 296 296 295 294
300 300 300 300 300 299 299 298 298 297 297 297 296 295 295 297 297 296 295 295 294 293 295 296 295 295 295 295 295 295 296 296 297 297 296 296 296 296 295 295 296 298 297 297 298 299 300 301 298 295 294 296 296 297 298 300 300 299 299 298 297 296 295 295 295 296 297 297 297 297 297 297 297 297
300 300 300 299 300 300 299 298 298 297 297 297 296 296 296 296 295 293 293 294 293 293 294 296 296 295 296 296 296 295 295 295 296 296 295 295 295 295 295 295 296 297 296 296 297 297 298 298 298 296 296 297 297 298 298 299 299 299 298 298 298 298 297 296 295 295 295 295 296 297 297 298 298 298
300 300 300 299 299 299 299 298 298 297 297 297 297 296 296 296 295 295 295 296 295 295 295 295 295 295 295 295 295 295 295 295 296 295 294 294 294 295 295 295 295 294 295 295 296 296 296 296 297 297 297 297 297 298 298 298 298 298 298 298 299 298 298 297 296 295 295 295 295 295 295 296 297 297
300 300 300 299 299 299 298 298 297 297 297 297 296 296 295 295 296 295 295 295 295 294 294 294 294 294 294 294 295 295 295 295 294 294 293 294 294 294 295 295 294 294 294 295 295 295 295 295 295 296 296 296 296 296 296 297 297 296 296 296 296 296 296 296 296 297 297 296 295 295 294 294 295 295
299 299 299 299 298 298 298 297 297 297 297 297 296 296 295 295 295 295 295 294 294 294 293 293 293 293 293 293 293 294 293 293 293 293 294 294 294 294 294 294 294 294 294 294 294 294 294 294 294 294 295 295 296 296 296 296 296 295 295 295 294 294 295 295 296 296 297 297 297 296 295 294 294 294
Wind_Speed
6 7 6 7 7 7 8 8 9 8 7 6 5 5 5 6 9 11 11 10 9 11 13 12 12 14 16 17 18 18 15 16 19 17 17 18 17 16 14 14 15 15 15 15 16 16 17 19 20 20 21 21 22 22 23 27 28 29 35 36 36 34 32 37 41 41 40 39 38 37 36 34 31 31
7 7 7 7 8 8 8 7 8 8 7 5 5 6 5 5 6 8 10 10 10 12 13 13 13 14 16 16 17 17 13 15 19 17 16 18 18 17 14 13 14 15 15 16 16 17 17 18 19 20 21 22 23 23 22 23 25 25 29 33 35 36 34 37 42 42 41 41 40 39 37 35 33 33
8 7 8 8 8 9 8 7 7 6 6 5 5 5 5 5 5 6 8 9 10 12 13 13 14 14 15 14 14 15 12 13 17 15 14 15 16 15 16 16 15 15 16 16 17 18 17 18 19 19 20 20 22 24 24 23 23 23 26 30 34 36 36 37 41 43 43 43 42 40 39 38 36 35
7 7 7 7 7 8 8 8 7 6 6 5 5 5 5 5 6 6 7 8 10 11 12 13 14 14 14 13 13 14 12 12 14 12 12 14 13 11 13 16 16 16 17 17 17 17 17 17 17 18 18 19 19 21 24 25 25 24 26 29 32 36 38 39 40 43 45 45 43 41 40 40 38 37
7 6 6 6 6 7 7 7 7 7 7 6 5 6 5 5 6 7 7 8 10 11 12 12 13 14 14 13 13 14 13 12 12 12 11 12 11 9 9 12 14 16 17 17 17 16 16 16 16 17 18 18 19 19 21 24 27 27 27 28 30 34 39 42 43 42 44 46 45 43 42 42 41 39
6 6 5 5 5 7 7 7 7 8 8 7 6 6 5 5 6 7 7 8 10 12 13 13 13 14 14 13 13 14 13 12 13 13 11 10 11 10 10 10 13 17 18 17 18 18 17 18 17 18 18 18 19 20 20 21 25 29 30 30 31 32 36 40 43 44 45 46 46 46 44 43 43 41
5 5 5 5 6 7 7 7 8 8 8 7 7 6 5 5 5 6 6 7 9 11 12 13 14 14 13 13 13 13 12 12 12 12 11 11 11 10 11 12 14 19 19 18 19 19 19 19 19 19 19 20 20 21 21 21 22 26 30 33 33 33 34 36 39 44 47 47 48 49 47 46 45 43
5 5 5 6 7 7 7 7 7 7 7 7 7 7 6 5 5 6 6 7 8 10 11 12 13 13 13 12 13 13 12 11 12 12 11 12 12 11 12 12 15 20 19 19 21 22 20 20 19 19 20 20 21 21 22 23 23 24 27 32 35 35 36 36 37 41 46 47 49 51 50 48 47 45
6 6 5 6 6 6 5 5 5 6 6 7 8 8 7 6 6 6 6 7 8 9 10 11 11 12 12 12 12 13 12 12 13 12 13 15 14 13 13 13 16 20 19 20 26 25 22 22 22 20 18 18 19 20 21 23 25 25 26 29 33 37 37 38 37 38 42 48 51 53 52 51 50 47
7 6 6 6 6 5 5 5 5 6 7 8 9 9 9 8 7 6 6 7 7 8 9 10 11 12 12 12 12 13 13 13 14 14 14 15 16 16 15 14 17 20 16 19 28 30 27 27 28 25 21 19 18 18 18 20 22 25 26 27 30 36 38 39 40 39 40 46 51 54 54 52 51 48
6 6 6 6 7 7 6 6 6 7 8 9 9 9 10 9 7 6 6 7 7 8 9 10 11 12 12 12 12 12 11 11 13 14 14 16 17 17 16 14 18 21 16 15 23 31 33 32 32 32 28 26 23 20 18 18 18 21 24 26 28 32 38 40 41 41 40 42 47 53 56 54 52 50
6 6 6 6 8 8 7 7 7 7 8 8 8 9 9 9 8 6 6 7 7 8 10 10 11 11 11 11 11 12 12 12 13 14 14 16 17 17 16 14 18 22 18 13 18 28 34 33 33 36 36 33 30 26 24 21 18 17 19 23 25 27 33 39 41 42 41 40 44 51 56 56 54 53
6 6 5 7 8 8 8 9 8 8 8 8 8 8 8 8 7 6 5 7 8 9 10 10 11 11 11 12 13 13 13 12 13 13 14 15 15 15 15 13 17 23 21 14 16 25 30 29 30 37 40 38 36 33 31 29 25 20 17 18 21 23 26 33 38 42 43 40 41 48 55 56 55 55
5 5 5 7 9 10 10 10 9 9 9 8 8 8 8 7 7 6 6 7 8 9 9 10 11 11 12 12 13 14 14 13 12 13 14 14 13 14 15 13 15 22 23 16 16 22 26 24 26 34 40 40 39 38 36 35 30 23 18 17 18 18 20 24 31 38 43 43 41 45 53 56 55 55
6 5 5 5 7 8 9 11 11 10 10 9 9 9 9 8 8 8 7 7 7 8 9 10 10 10 11 12 13 15 16 14 14 14 13 13 13 14 16 15 15 21 22 16 15 20 22 20 23 30 37 39 40 40 38 36 32 24 19 17 17 16 16 18 23 30 39 43 41 42 50 56 55 55
7 6 5 5 5 6 9 11 12 12 11 11 10 9 10 10 10 10 9 8 8 7 7 8 9 10 11 12 13 17 18 16 14 13 12 12 12 13 14 15 15 19 20 17 16 20 20 18 20 26 31 36 40 41 39 36 32 26 19 16 16 17 15 15 18 23 31 39 41 40 46 54 55 55
7 6 6 7 7 8 11 12 12 13 13 12 11 11 11 11 10 10 9 9 11 9 7 7 8 11 13 14 15 18 19 16 12 11 12 12 13 13 12 13 15 16 18 18 17 19 20 18 19 22 25 30 39 44 42 37 33 27 21 17 16 18 18 16 16 19 24 33 38 38 42 51 55 54
7 7 7 7 7 9 10 11 12 14 14 14 13 11 10 10 11 12 11 11 13 12 9 8 9 11 13 15 16 17 19 18 13 12 14 13 13 14 10 11 15 15 17 18 15 16 19 18 17 20 21 24 32 43 47 41 33 27 24 22 20 20 21 20 15 17 20 27 34 34 38 48 53 51
8 9 8 8 9 8 9 10 12 13 13 13 12 11 10 11 12 13 13 13 14 13 11 11 11 12 12 13 15 16 17 18 16 15 15 12 12 14 11 10 14 14 16 19 16 14 18 18 16 16 18 21 26 35 44 45 39 33 29 26 24 22 23 24 16 9 12 19 26 28 35 47 51 49
9 10 9 9 9 9 9 10 13 14 13 11 10 10 12 12 12 12 13 14 14 14 13 13 13 14 13 13 14 15 17 18 16 13 12 11 12 14 11 11 14 12 15 19 16 13 16 17 15 14 15 21 25 29 36 40 41 41 38 33 28 24 24 25 22 13 5 6 14 19 27 37 40 38
10 12 11 9 8 7 9 11 12 14 14 11 9 9 10 11 11 12 13 14 14 14 14 14 13 13 14 14 14 14 15 16 13 10 10 11 13 13 12 13 14 12 15 19 17 13 14 16 15 14 13 18 23 27 32 34 35 38 41 40 36 30 25 24 23 21 17 8 5 14 21 25 26 28
11 14 14 12 9 7 8 11 11 13 14 10 9 8 7 8 10 12 13 12 13 14 14 14 14 14 15 15 14 14 14 13 11 10 11 12 12 12 13 13 13 11 14 19 16 13 15 15 14 14 13 13 17 24 30 31 31 33 36 39 40 38 31 25 20 20 19 16 10 11 16 18 21 27
11 12 13 13 11 9 9 10 10 11 12 10 8 8 7 7 10 12 12 11 11 12 12 11 12 13 13 13 13 14 13 10 10 12 13 12 11 12 12 12 13 12 14 17 16 13 15 15 14 15 14 12 14 19 26 30 31 31 32 34 36 38 38 33 27 22 17 13 10 7 7 7 9 17
11 10 10 10 10 9 9 9 9 9 10 10 9 8 8 9 9 10 11 11 11 13 11 9 9 9 9 9 10 11 10 9 10 13 15 14 12 11 11 11 12 11 12 15 16 14 13 14 14 14 13 13 13 15 20 26 29 30 31 32 32 33 35 37 37 34 27 20 15 9 3 2 3 5
10 8 7 9 10 9 8 8 7 7 8 10 10 9 9 9 8 9 11 12 12 12 11 9 8 7 8 8 9 9 9 9 10 12 13 14 14 13 12 11 10 9 11 14 15 13 12 13 14 14 12 12 13 14 16 20 24 27 28 28 30 30 30 30 32 34 34 32 30 25 16 5 5 9
10 9 9 9 10 9 8 7 6 6 7 9 9 9 10 9 8 10 12 11 10 9 9 8 7 7 7 8 9 9 9 9 10 10 10 12 13 13 13 13 11 9 10 14 15 13 11 12 14 14 14 12 13 15 16 16 17 22 24 24 25 27 27 27 27 27 28 28 28 28 26 21 16 17
9 10 10 10 9 9 8 7 6 5 6 7 7 9 10 9 9 11 11 9 9 9 8 9 9 9 9 8 9 9 10 9 9 10 10 9 10 12 14 17 17 13 11 12 13 12 12 12 13 13 14 13 13 15 16 15 15 17 20 21 21 23 24 24 25 24 23 22 21 20 20 20 20 22
10 10 10 10 9 9 8 7 6 5 5 6 7 8 10 10 11 11 9 8 8 9 9 9 9 10 11 11 10 9 10 10 9 9 11 11 11 13 17 21 23 20 18 17 15 13 12 14 14 13 13 14 15 15 15 15 14 14 16 17 19 21 21 21 21 21 20 19 18 19 20 19 15 16
11 11 10 9 9 9 8 7 6 4 4 4 6 8 10 11 10 9 8 8 8 8 8 8 8 9 10 12 13 13 12 11 9 8 10 12 11 11 14 18 21 21 20 21 20 17 15 13 13 13 13 14 15 15 15 15 14 14 14 14 16 18 19 18 18 18 18 18 18 18 19 19 16 14
10 10 10 10 9 9 9 8 6 4 3 4 6 9 10 9 8 8 8 7 7 7 7 8 7 8 8 9 12 12 11 10 10 9 9 10 11 10 10 11 14 17 19 19 20 20 19 17 14 13 13 13 14 14 14 14 14 15 14 13 13 15 17 17 17 16 16 16 17 18 17 16 15 14
10 9 10 9 9 9 8 8 7 5 3 4 6 6 6 6 7 8 8 7 7 6 6 6 6 7 7 8 9 9 9 9 10 11 9 9 10 10 9 8 10 12 16 17 18 19 20 20 19 17 15 13 13 13 13 13 13 14 15 14 13 13 14 15 16 16 15 15 16 17 17 15 14 13
10 9 9 8 8 7 6 5 5 4 3 2 2 3 3 5 7 8 8 8 6 5 5 5 5 6 6 7 7 7 9 9 10 10 9 9 10 10 9 9 9 10 12 14 16 17 19 20 21 21 19 17 14 12 12 13 13 13 13 14 14 13 12 12 13 13 13 13 14 15 15 15 14 13
9 8 7 7 6 6 5 5 5 4 4 4 3 4 4 4 5 6 6 5 4 4 4 5 5 6 6 6 6 6 7 8 9 10 10 9 9 9 9 9 10 10 10 11 13 14 16 17 17 19 21 21 18 14 12 11 13 13 12 12 12 12 12 11 12 12 11 11 12 12 12 12 12 11
8 7 7 6 6 6 5 6 6 5 5 4 3 2 4 3 2 4 4 3 3 4 5 4 5 6 6 6 6 6 6 6 8 9 10 9 9 9 9 9 9 9 10 10 11 12 13 13 12 12 15 17 18 18 16 12 10 11 12 11 11 11 11 10 10 11 11 10 10 9 9 9 9 9
7 7 7 7 6 6 6 6 6 5 5 5 4 3 3 2 2 3 2 0 2 4 4 4 5 5 5 5 6 6 6 6 6 7 8 8 8 9 9 9 9 9 9 9 10 11 12 12 11 9 9 9 11 14 16 14 11 9 10 10 10 9 9 9 9 9 9 9 9 9 8 8 7 6
6 6 6 5 6 6 6 6 7 5 4 4 4 3 3 2 2 2 2 2 1 2 2 3 4 5 5 5 5 6 7 7 6 7 7 7 8 8 8 9 9 8 8 9 9 10 11 11 11 11 9 8 8 9 13 14 13 10 8 8 8 8 8 8 8 8 7 7 7 7 7 6 6 5
5 6 5 4 5 5 5 5 6 5 5 4 4 3 3 2 1 1 2 0 2 2 2 2 4 5 5 5 6 6 6 6 6 7 7 7 7 7 8 9 9 8 8 8 8 9 9 10 11 11 11 10 10 9 10 12 14 12 9 6 6 6 7 6 6 7 7 6 6 6 5 5 5 3
4 6 5 4 5 4 4 5 5 5 5 4 3 3 3 2 1 1 1 2 1 2 2 3 4 5 4 5 6 6 6 6 6 6 7 7 7 8 8 8 9 9 8 8 8 8 8 8 9 10 10 10 11 11 10 10 11 11 10 8 5 5 5 5 5 5 5 4 4 4 4 3 2 0
5 5 5 4 5 4 4 5 5 4 4 4 3 3 3 2 1 1 1 1 1 1 2 3 4 4 4 5 6 5 6 6 6 6 6 7 7 7 8 8 9 9 9 9 8 8 7 6 7 9 10 9 9 9 9 9 8 9 11 11 8 5 4 4 3 3 3 3 3 2 2 2 2 2
5 5 5 4 4 4 4 4 4 4 4 3 3 4 3 2 1 1 0 1 2 1 1 4 5 4 4 5 6 5 6 6 6 6 7 7 7 7 8 9 9 9 9 9 9 9 7 6 7 9 9 9 9 9 9 10 9 8 11 13 13 10 7 4 3 3 3 3 3 2 3 3 4 4
5 5 5 5 4 4 4 3 4 4 4 3 4 4 3 2 2 3 4 4 3 1 1 4 6 6 6 6 6 6 6 6 7 7 7 7 8 8 9 9 8 9 9 9 9 9 8 10 14 14 11 10 10 9 9 10 9 7 8 12 16 16 12 8 6 5 4 4 4 4 5 5 5 5
5 5 5 5 4 4 4 4 4 4 4 3 3 2 2 2 3 3 2 3 4 3 3 4 6 6 6 7 7 7 7 7 7 8 9 9 8 9 9 8 8 9 10 10 10 10 10 12 15 14 11 10 10 9 9 9 9 9 9 11 16 18 17 14 12 10 9 8 7 6 6 6 6 7
6 5 4 5 5 4 4 4 4 3 3 3 3 2 2 2 2 2 2 3 4 4 4 4 5 6 6 6 7 8 8 8 8 10 11 11 10 10 10 9 10 11 11 11 11 11 11 11 11 11 11 11 10 10 11 11 11 12 11 10 10 13 15 18 19 18 16 14 12 11 10 9 9 9
5 5 4 4 4 4 4 4 3 3 3 2 2 2 2 2 2 3 3 3 4 4 5 5 5 6 6 7 7 7 8 9 10 11 11 12 11 11 11 12 12 13 12 12 12 12 12 11 11 10 11 12 11 11 13 13 13 14 14 14 14 15 16 18 20 22 22 21 19 16 14 13 13 13
5 4 4 3 3 3 3 3 3 3 3 2 2 3 3 2 2 3 4 4 5 6 6 6 6 7 7 8 9 10 11 12 12 12 11 11 12 12 12 13 13 14 14 14 14 14 13 13 13 12 12 13 13 13 14 14 15 16 17 17 18 18 17 16 16 18 21 22 21 21 20 19 18 17
Wind_Direction
64 66 59 52 44 36 33 25 17 16 13 10 9 5 9 -0 345 340 343 348 349 351 358 359 349 352 0 0 1 1 356 353 353 352 346 342 341 341 338 333 330 325 318 314 308 304 299 294 290 283 279 277 274 272 265 261 257 246 241 239 235 233 226 217 218 223 224 223 222 220 217 216 214 212
71 65 53 43 37 33 31 24 19 15 10 9 6 -0 358 358 353 343 335 336 344 347 351 356 352 351 357 -0 1 1 354 349 356 360 353 348 347 346 344 341 337 329 323 319 313 308 303 297 295 290 284 279 274 273 270 265 263 256 246 240 236 237 234 221 217 221 224 225 224 219 216 217 214 211
71 61 49 40 33 28 24 20 21 16 11 9 3 1 356 350 354 352 340 332 340 349 350 352 353 350 354 357 356 356 353 347 354 -0 355 351 355 353 345 343 345 340 332 328 323 317 311 304 298 294 290 285 278 273 270 266 263 258 250 243 238 238 237 228 219 219 221 224 225 220 217 216 213 211
70 58 47 40 33 29 23 19 19 15 11 10 5 1 359 357 356 359 354 339 340 350 351 350 350 348 352 356 352 352 353 348 351 355 349 350 -0 1 342 337 344 350 344 337 332 324 319 314 306 300 295 290 284 277 271 267 262 257 251 246 241 239 239 235 226 219 218 221 224 222 221 217 212 212
71 60 48 38 30 28 26 23 17 9 9 11 9 4 1 3 1 3 3 351 344 349 350 350 348 347 352 357 353 352 352 350 353 353 347 351 357 1 354 337 337 351 350 340 336 331 324 319 312 306 301 295 291 284 276 268 262 257 252 248 246 241 239 239 234 224 217 217 221 223 225 219 212 211
71 61 50 38 27 23 21 17 9 3 5 8 6 4 6 8 4 3 5 359 351 349 349 350 349 349 354 356 355 356 354 352 354 352 350 357 356 358 5 349 339 349 350 340 338 335 328 321 314 307 302 297 294 288 283 275 265 258 253 249 248 245 242 241 239 232 222 215 216 220 224 222 215 211
74 63 48 32 26 23 17 10 5 -0 1 7 6 3 6 8 5 2 4 4 355 349 349 350 352 353 355 357 357 358 358 356 356 355 354 359 359 358 3 358 351 352 348 345 346 342 335 327 317 309 302 296 293 288 285 281 273 263 255 250 247 245 244 243 240 238 230 219 213 215 221 222 216 210
88 76 59 42 31 25 17 9 8 5 6 18 17 9 10 10 7 3 4 5 357 350 349 351 355 356 355 359 358 358 5 5 1 2 2 0 1 0 0 359 357 357 356 -0 1 356 351 345 334 321 310 299 293 288 283 280 277 271 261 253 247 244 243 241 240 240 236 226 214 212 217 220 216 211
95 82 70 57 42 33 27 22 25 26 28 35 31 26 26 22 13 8 7 7 2 358 355 352 356 359 358 3 1 359 7 9 5 8 9 5 4 3 2 359 1 6 10 16 16 12 8 6 360 346 331 317 305 295 289 282 277 275 268 257 250 245 242 241 239 239 239 233 220 212 214 219 218 215
92 84 71 63 60 57 56 55 57 57 54 48 39 35 39 39 31 17 9 11 8 5 2 358 1 4 3 6 6 2 7 10 7 7 9 9 8 7 4 1 8 15 16 15 18 19 18 18 15 9 359 348 333 316 306 295 284 279 273 264 255 247 243 241 240 237 238 238 228 216 214 217 218 217
90 85 74 73 80 78 73 71 71 74 70 58 44 36 39 46 47 30 14 16 16 11 10 9 9 10 7 8 9 5 7 13 11 9 9 8 8 9 6 3 12 19 19 10 12 18 22 21 18 16 13 6 357 345 333 319 301 289 281 272 262 252 245 242 241 239 237 239 235 223 215 214 216 216
95 92 84 87 90 84 77 74 71 74 72 64 53 42 39 43 47 38 21 23 26 20 19 19 15 14 12 10 9 6 7 13 12 9 9 7 6 8 7 4 9 15 16 8 4 14 21 20 16 16 15 11 6 0 353 344 328 310 296 283 273 261 250 243 240 240 237 237 237 229 218 213 214 215
107 100 98 101 96 84 77 76 73 71 67 62 56 48 43 43 45 42 32 34 38 29 23 23 19 18 16 12 10 9 8 10 10 6 6 6 4 5 8 7 8 11 14 9 2 8 14 15 13 14 14 12 9 5 0 355 345 330 319 303 288 276 263 249 241 240 238 236 237 233 222 214 213 215
118 110 112 107 93 82 79 77 76 74 67 61 56 49 47 46 44 46 41 40 42 36 28 25 20 19 18 13 12 10 8 15 19 8 1 2 1 2 7 7 5 10 13 10 2 4 8 9 9 11 13 12 10 8 3 358 351 338 329 325 311 294 279 262 248 242 238 234 235 234 224 214 211 214
122 120 124 102 78 75 77 72 71 73 68 63 59 51 50 48 48 52 50 46 46 39 33 29 21 19 16 10 12 12 10 19 25 12 357 357 359 1 5 3 359 5 10 6 359 1 4 7 7 9 14 14 12 9 4 -0 357 347 332 329 328 316 295 275 260 248 240 234 232 233 227 217 211 213
129 128 131 121 109 98 83 67 61 62 61 61 60 56 55 55 56 57 53 50 51 42 34 30 22 20 17 10 11 14 14 17 19 8 356 355 1 2 2 2 357 358 4 8 8 3 1 5 9 10 14 18 17 15 8 3 3 359 342 332 335 334 321 294 270 254 244 237 232 232 230 218 211 212
138 137 130 124 117 98 83 72 62 58 56 58 58 55 53 56 62 64 57 53 56 52 41 31 24 23 21 14 11 15 16 13 4 358 357 359 3 359 355 359 357 353 358 7 11 5 -0 4 10 10 13 19 22 22 17 9 6 7 0 349 344 344 342 326 290 261 247 238 232 232 229 218 210 211
140 139 132 123 110 94 90 88 76 63 55 54 54 54 54 57 61 63 57 52 55 55 43 30 25 21 18 13 9 14 17 11 2 3 1 355 356 354 346 353 357 353 354 360 4 1 358 3 8 9 13 17 22 26 25 18 13 12 11 6 359 354 355 351 318 270 250 238 231 227 224 217 210 208
141 140 137 129 119 109 103 97 88 74 59 49 47 50 54 57 58 58 56 51 50 51 44 33 27 19 13 8 5 9 11 7 8 11 360 349 356 -0 358 359 358 354 353 360 6 -0 356 1 3 4 9 12 17 25 27 25 23 22 19 14 10 9 10 9 357 300 252 234 228 224 220 215 210 206
142 135 133 129 123 116 102 90 87 83 70 50 40 41 42 45 47 48 52 52 47 45 41 31 22 15 9 -0 357 2 2 358 4 10 358 356 8 9 9 8 4 2 357 1 13 7 352 358 3 357 354 360 12 25 26 25 26 27 27 23 19 21 23 24 24 22 5 241 225 219 212 208 204 204
152 144 140 132 120 113 102 89 84 81 74 56 41 43 39 38 39 35 38 42 39 38 38 29 19 10 1 353 352 357 355 350 356 8 7 11 14 12 14 11 8 9 356 357 16 20 357 355 1 358 348 348 5 22 25 23 25 27 31 32 29 28 31 34 39 43 43 48 166 183 187 189 192 201
158 152 148 140 132 126 106 91 83 80 75 57 42 50 47 43 47 42 37 35 28 27 29 23 17 9 1 359 359 357 354 355 6 18 19 19 15 14 17 9 7 11 355 355 16 23 1 356 359 360 358 352 4 19 21 22 24 25 28 31 32 33 35 36 40 47 50 54 81 139 165 181 195 207
154 151 149 146 143 135 108 91 82 79 78 65 49 58 64 60 60 54 47 42 34 32 27 16 14 10 5 8 7 357 357 11 28 33 31 27 18 16 18 10 10 15 357 358 20 21 358 359 3 0 3 -0 1 13 17 18 22 26 26 27 30 37 42 45 45 44 48 53 60 91 130 157 188 206
151 147 148 149 142 127 109 96 84 76 77 69 55 58 71 72 67 59 51 44 42 43 36 22 21 17 7 14 16 4 2 21 36 38 35 32 24 19 20 15 17 20 2 0 20 22 -0 1 7 6 8 5 359 5 13 16 20 23 26 28 31 37 45 51 53 52 53 55 56 64 102 200 217 202
148 143 154 160 147 129 116 104 89 76 73 65 53 55 68 70 65 61 55 45 39 39 32 20 23 25 15 18 23 15 11 20 30 31 30 31 33 31 30 25 22 24 12 6 15 17 5 6 12 10 10 11 9 10 14 18 21 22 24 29 33 38 44 49 54 57 57 58 58 59 60 71 189 192
151 156 170 168 151 136 128 117 104 88 75 62 51 53 63 67 65 61 57 50 43 40 36 30 32 34 27 25 28 25 18 17 22 24 23 28 34 37 40 38 31 27 18 11 14 19 16 13 14 14 15 14 13 15 16 17 20 22 25 29 35 40 43 46 52 58 59 60 62 63 65 71 92 118
159 173 178 170 158 149 141 128 115 99 81 65 55 58 65 69 69 62 56 53 51 47 44 42 41 42 40 34 30 26 20 18 19 19 20 27 31 35 43 46 42 37 32 22 16 19 24 21 16 16 19 16 13 15 18 17 16 19 24 29 36 41 42 42 47 52 57 61 64 68 74 78 83 93
166 179 178 174 168 158 148 140 131 114 90 68 58 64 70 69 68 65 59 55 54 50 47 43 40 41 42 42 45 40 29 26 23 15 18 28 35 36 41 47 48 47 48 45 35 28 27 25 21 19 21 23 21 19 20 20 17 18 22 28 35 40 40 40 42 45 50 57 63 67 76 85 91 102
175 176 176 177 174 164 156 147 135 120 102 78 64 68 72 69 68 70 66 59 55 51 46 41 37 35 35 39 48 48 37 31 30 23 17 22 33 36 33 39 44 46 49 51 48 44 41 35 26 21 22 27 30 28 25 24 23 24 25 27 32 36 38 39 42 46 50 54 59 64 74 86 95 106
173 172 174 174 170 168 164 152 145 151 134 87 64 61 65 70 76 80 75 68 61 51 44 39 34 32 28 29 36 39 34 28 32 35 27 20 26 32 27 27 33 36 41 47 50 51 50 47 42 36 31 30 32 32 30 28 28 29 29 30 33 36 38 42 45 49 55 60 63 66 70 80 92 103
170 172 172 168 166 167 164 156 154 155 125 77 59 57 61 71 83 86 80 74 66 52 40 33 27 26 25 25 27 31 32 31 30 33 34 26 24 26 26 27 28 27 29 36 44 50 53 52 49 45 40 34 32 30 31 32 34 34 32 34 38 38 38 43 47 49 53 61 68 71 72 74 82 92
169 166 160 157 156 153 148 144 144 144 138 130 127 120 86 57 57 61 58 55 53 45 34 27 20 17 17 19 22 26 29 32 32 31 34 33 27 24 24 29 31 28 24 26 32 41 49 52 51 48 45 42 39 34 30 31 35 37 35 35 41 43 40 42 45 45 48 57 65 71 75 78 82 87
154 150 146 144 145 147 150 154 159 171 177 176 174 155 120 77 56 59 56 47 45 48 38 19 11 11 9 9 11 16 20 24 27 30 33 31 26 23 24 25 27 28 27 24 22 24 28 32 33 33 33 35 40 45 45 35 30 34 37 35 38 43 44 44 45 43 43 49 57 65 73 79 85 92
149 151 153 155 156 160 166 167 170 180 179 178 193 168 121 112 109 95 80 58 50 53 42 21 9 6 4 3 3 7 13 15 14 20 27 30 27 25 23 20 21 23 24 24 22 18 16 14 10 7 10 14 20 32 44 47 37 30 34 37 39 40 43 46 48 48 48 51 54 60 68 74 82 94
150 154 155 159 161 165 172 172 172 178 178 175 181 161 130 145 133 100 94 65 47 40 22 10 9 2 359 1 356 358 7 10 6 8 15 21 24 24 20 16 17 19 19 20 19 16 16 17 13 7 5 3 3 13 28 42 49 41 31 33 38 40 39 42 46 49 51 54 58 62 67 71 77 89
146 152 150 158 163 167 178 178 170 172 179 178 172 159 151 156 121 115 210 216 95 39 344 347 358 349 348 351 345 346 354 359 2 2 4 10 14 13 10 7 6 7 10 13 13 13 14 15 15 13 12 10 7 5 11 22 38 48 43 30 31 37 39 37 40 45 46 48 55 62 69 77 85 89
162 160 152 164 169 164 174 179 173 175 179 175 169 160 147 141 154 206 236 142 63 7 323 348 346 331 332 338 335 337 342 345 349 352 355 3 6 4 1 359 355 356 358 358 0 6 8 10 13 13 9 7 9 10 3 2 12 26 40 37 25 31 40 36 33 39 45 47 51 57 64 77 92 105
180 170 162 173 172 165 175 180 175 176 177 171 166 159 143 135 166 197 56 68 41 319 336 347 322 308 319 329 326 329 336 337 340 346 348 353 358 360 357 352 348 348 350 349 349 353 356 -0 6 9 8 5 5 4 359 351 350 359 18 32 29 24 28 22 16 25 33 38 48 58 68 85 106 198
184 179 175 176 172 172 183 183 176 175 176 167 153 146 140 134 139 91 50 34 288 328 354 323 300 298 319 322 317 321 329 328 332 337 339 343 350 351 348 344 340 337 339 344 345 343 346 354 359 359 359 356 350 345 345 345 335 331 346 5 19 27 20 1 350 3 7 2 15 27 10 355 352 345
183 178 172 172 173 174 178 184 185 183 178 173 178 178 163 138 124 124 157 262 276 315 337 312 309 319 327 315 311 319 323 321 323 326 326 332 339 336 332 337 338 331 329 333 336 340 342 330 317 322 329 328 327 331 339 342 334 317 321 334 344 354 359 349 333 331 320 315 320 309 300 312 320 321
175 174 169 167 168 169 171 177 184 187 190 196 212 209 178 152 202 224 223 239 259 275 328 316 315 324 326 319 321 327 323 317 319 319 317 322 325 324 329 339 339 327 324 326 326 331 330 309 303 310 318 321 324 329 330 328 325 319 311 311 315 322 332 336 333 324 301 288 290 281 271 273 273 269
166 167 168 166 161 164 171 175 179 188 191 193 210 220 202 216 253 258 269 303 317 336 346 324 312 315 317 314 314 315 313 314 316 313 311 316 318 319 325 331 323 315 318 320 316 317 317 312 313 318 322 321 320 316 309 307 309 311 311 306 305 311 317 317 315 315 307 295 288 277 267 265 261 255
169 166 172 175 174 175 181 181 179 185 192 195 208 219 219 248 286 306 322 317 315 320 320 312 307 308 306 303 305 309 312 314 311 307 308 313 315 313 313 311 308 308 313 313 310 310 312 312 313 312 309 308 306 298 295 298 299 299 302 302 299 304 310 311 309 308 304 296 288 278 268 262 260 255
173 171 175 185 189 193 195 191 188 197 203 208 225 238 238 256 289 297 291 289 294 296 297 301 307 310 308 306 307 307 305 301 301 306 312 314 313 311 308 305 306 308 308 306 305 306 307 307 306 301 298 298 297 291 288 289 290 291 292 289 282 281 288 297 301 303 302 299 294 288 280 271 266 262
172 169 171 178 182 189 191 189 194 210 220 223 238 254 260 270 291 299 302 302 294 290 295 302 303 301 301 302 302 302 301 302 304 309 310 308 306 305 304 301 301 302 302 302 301 301 301 302 301 298 295 292 291 290 288 287 288 289 290 290 289 287 286 284 283 285 289 291 292 291 287 282 277 273